TimeEDT,TemperatureF,Dew PointF,Humidity,Sea Level PressureIn,VisibilityMPH,Wind Direction,Wind SpeedMPH,Gust SpeedMPH,PrecipitationIn,Events,Conditions,WindDirDegrees,DateUTC
12:53 AM,55.9,50.0,80,29.76,10.0,Variable,3.5,-,N/A,,Overcast,0,2013-10-20 04:53:00
1:53 AM,55.9,48.9,77,29.74,10.0,South,3.5,-,N/A,,Overcast,190,2013-10-20 05:53:00
2:53 AM,55.0,48.0,77,29.72,10.0,Calm,Calm,-,0.00,Rain,Light Rain,0,2013-10-20 06:53:00
3:53 AM,53.1,48.9,86,29.70,10.0,South,3.5,-,0.01,Rain,Light Rain,190,2013-10-20 07:53:00
4:53 AM,54.0,48.9,83,29.69,10.0,SSW,3.5,-,0.00,,Overcast,210,2013-10-20 08:53:00
5:53 AM,54.0,50.0,86,29.68,10.0,Calm,Calm,-,N/A,,Mostly Cloudy,0,2013-10-20 09:53:00
6:00 AM,53.6,50.0,88,29.67,10.0,Calm,Calm,-,N/A,,Scattered Clouds,0,2013-10-20 10:00:00
6:53 AM,54.0,52.0,93,29.68,10.0,SW,3.5,-,N/A,,Overcast,230,2013-10-20 10:53:00
7:53 AM,55.0,52.0,89,29.69,10.0,Calm,Calm,-,N/A,,Clear,0,2013-10-20 11:53:00
8:53 AM,55.9,48.0,75,29.71,10.0,Variable,5.8,-,N/A,,Clear,0,2013-10-20 12:53:00
9:53 AM,57.0,46.9,69,29.72,10.0,West,9.2,-,N/A,,Clear,270,2013-10-20 13:53:00
10:53 AM,59.0,42.1,53,29.73,10.0,West,10.4,16.1,N/A,,Clear,270,2013-10-20 14:53:00
11:53 AM,60.1,37.9,44,29.74,10.0,West,10.4,20.7,N/A,,Partly Cloudy,270,2013-10-20 15:53:00
12:53 PM,61.0,35.1,38,29.74,10.0,West,11.5,23.0,N/A,,Clear,280,2013-10-20 16:53:00
1:53 PM,62.1,34.0,35,29.75,10.0,Variable,6.9,21.9,N/A,,Clear,0,2013-10-20 17:53:00
2:53 PM,62.1,30.9,31,29.77,10.0,WNW,12.7,21.9,N/A,,Clear,290,2013-10-20 18:53:00
3:53 PM,61.0,30.0,31,29.79,10.0,West,9.2,21.9,N/A,,Clear,270,2013-10-20 19:53:00
4:53 PM,59.0,28.9,32,29.81,10.0,Variable,6.9,17.3,N/A,,Clear,0,2013-10-20 20:53:00
5:53 PM,55.9,30.0,37,29.84,10.0,West,4.6,-,N/A,,Clear,270,2013-10-20 21:53:00
6:53 PM,54.0,30.0,40,29.86,10.0,West,4.6,-,N/A,,Clear,280,2013-10-20 22:53:00
7:53 PM,46.0,34.0,63,29.89,10.0,Calm,Calm,-,N/A,,Clear,0,2013-10-20 23:53:00
8:53 PM,44.1,35.1,71,29.91,9.0,Calm,Calm,-,N/A,,Clear,0,2013-10-21 00:53:00
9:53 PM,42.1,35.1,76,29.94,10.0,Calm,Calm,-,N/A,,Clear,0,2013-10-21 01:53:00
10:53 PM,39.0,35.1,86,29.96,10.0,Calm,Calm,-,N/A,,Clear,0,2013-10-21 02:53:00
11:53 PM,37.0,34.0,89,29.96,10.0,Calm,Calm,-,N/A,,Clear,0,2013-10-21 03:53:00